Showing default

GSAT 6, 40880

Orbit data source: Space-Track

GSAT 6, 40880 is a payload satellite owned by ISRO (IN) in GEO that was launched on Thu, 27 Aug 2015 UTC via a GSLV MK II launch vehicle from the Sirharikota (SRI). Payloads include a variety of satellites, spacecraft, and rockets equipped with specific instruments for various scientific and technological missions. These include communications satellites like Starlink; space stations such as the ISS; scientific satellites like the Hubble; Earth observation satellites from companies like Planet Labs, Umbra, and HawkEye 360; GPS; miniature CubeSats for education and research; and military/defense satellites.

Not visible in the next 10 days
GSAT 6 details
Identifier
40880, 2015-041A
Orbit
GEO
Last TLE update6 hours ago
Origin
Flag of INISRO (IN / IND)
ManufacturerISRO SAC/Banga
MissionOperational Defense Communications
Bus & MotorI2K, ISRO LAM
Mass2,217 kg wet, 985 kg dry
Launch date (UTC)
2015-08-27 (9 years ago)
Launch vehicle
GSLV MK II
Launch site
Sirharikota (SRI)
Object type
Payload
Rocket body
Debris
Shape & HBRBox + 2 Pan, 9.5 m
Radar Cross Section13.236 m², Large (>1 m²)

Expand to show TLE details & history

TLE from 6 hours ago
0 GSAT 6
1 40880U 15041A   24339.15327117 -.00000138  00000-0  00000+0 0  9991
2 40880   0.4670  90.7521 0003421 162.2173 318.1976  1.00271846 33971
Epoch: 2024-12-04T03:40Z
Definitive object data (Epoch: 2024-12-04T03:40:42.629Z)
Latitude0.3815°
Longitude82.48631°
Altitude35,775.225 km
Speed3.076 km/s
True Right ascension14h 04m 27s
True Declination0° 22' 52"
Sunlit
Object was in daylight at TLE epoch
Visualization TLE readout
Latitude-0.28288°
Longitude177.51879°
Altitude35,777.418 km
Speed3.075 km/s
Apparent Right ascension20h 21m 24s
Apparent Declination-5° 12' 00"
Sunlit
Object is in daylight
Visualization observer readout
Local Sidereal Time07:53:57
Azimuth348.1° N
Elevation-54.737°
Doppler factor1
Orbital elements
Apogee altitude35,802.073 km
Perigee altitude35,773.223 km
Semi-major axis42,165.785 km
Eccentricity0.0003421
Inclination0.467°
RAAN90.7521°
Arg. of periapsis162.2173°
True anomaly318.17146°
Mean anomaly318.1976°
Eccentric anomaly318.18453°
Mean motion0.25067 °/min
BSTARUnknown
Orbital period1436.15 mins
Loading historical data...
40880 neighbors
Authenticating...
Loading maneuver chart data...
Loading historical data...
Loading historical data...
Loading historical data...
Loading historical data...
Loading historical data...
Loading historical data...
Loading historical data...
Other satellites on launch #41 in the year 2015 (2015-08-27 UTC)

GSAT 6 Visibility forecast

Observer location: undefined°, undefined

GSAT 6 is not visible in the next 10 days
Span
Click to sort rows by Start time (UTC) header in descending order
Start Az.
Max El. time (UTC)
Max El. Az.
Max El.
End time (UTC)
End Az.
|